Time,TemperatureF,DewpointF,PressureIn,WindDirection,WindDirectionDegrees,WindSpeedMPH,WindSpeedGustMPH,Humidity,HourlyPrecipIn,Conditions,Clouds,dailyrainin,SoftwareType,DateUTC
2013-09-01 00:02:00,66.0,64.5,29.76,South,180,0.0,-999.0,95,-99.99,,,0.00,Acu-Link.com,2013-09-01 04:02:00,
2013-09-01 00:18:00,66.0,64.5,29.76,WNW,292,1.7,-999.0,95,-99.99,,,0.00,Acu-Link.com,2013-09-01 04:18:00,
2013-09-01 00:33:00,66.0,64.5,29.77,North,0,0.0,-999.0,95,-99.99,,,0.00,Acu-Link.com,2013-09-01 04:33:00,
2013-09-01 00:48:00,66.0,64.8,29.77,SSW,202,0.0,-999.0,96,-99.99,,,0.01,Acu-Link.com,2013-09-01 04:48:00,
2013-09-01 01:03:00,66.0,64.8,29.76,West,270,0.0,-999.0,96,-99.99,,,0.01,Acu-Link.com,2013-09-01 05:03:00,
2013-09-01 01:18:00,65.8,64.9,29.75,SW,225,0.0,-999.0,97,-99.99,,,0.02,Acu-Link.com,2013-09-01 05:18:00,
2013-09-01 01:34:00,65.5,64.9,29.76,SW,225,4.7,-999.0,98,-99.99,,,0.02,Acu-Link.com,2013-09-01 05:34:00,
2013-09-01 01:49:00,65.5,65.2,29.75,NNE,22,2.2,-999.0,99,-99.99,,,0.02,Acu-Link.com,2013-09-01 05:49:00,
2013-09-01 02:04:00,65.1,64.8,29.75,West,270,0.0,-999.0,99,-99.99,,,0.02,Acu-Link.com,2013-09-01 06:04:00,
2013-09-01 02:19:00,65.1,64.8,29.76,NNW,337,0.0,-999.0,99,-99.99,,,0.02,Acu-Link.com,2013-09-01 06:19:00,
2013-09-01 02:34:00,64.9,64.6,29.74,South,180,0.0,-999.0,99,-99.99,,,0.02,Acu-Link.com,2013-09-01 06:34:00,
2013-09-01 02:50:00,64.9,64.6,29.75,ENE,67,0.0,-999.0,99,-99.99,,,0.02,Acu-Link.com,2013-09-01 06:50:00,
2013-09-01 03:05:00,64.9,64.6,29.76,NNW,337,0.0,-999.0,99,-99.99,,,0.02,Acu-Link.com,2013-09-01 07:05:00,
2013-09-01 03:20:00,64.8,64.5,29.76,NW,315,0.0,-999.0,99,-99.99,,,0.02,Acu-Link.com,2013-09-01 07:20:00,
2013-09-01 03:35:00,64.4,64.1,29.76,North,0,0.0,-999.0,99,-99.99,,,0.02,Acu-Link.com,2013-09-01 07:35:00,
2013-09-01 03:50:00,64.2,63.9,29.76,North,0,1.1,-999.0,99,-99.99,,,0.02,Acu-Link.com,2013-09-01 07:50:00,
2013-09-01 04:06:00,64.0,63.7,29.77,SSW,202,0.0,-999.0,99,-99.99,,,0.02,Acu-Link.com,2013-09-01 08:06:00,
2013-09-01 04:22:00,64.0,63.7,29.78,South,180,0.0,-999.0,99,-99.99,,,0.02,Acu-Link.com,2013-09-01 08:22:00,
2013-09-01 04:37:00,63.9,63.6,29.78,SSW,202,3.2,-999.0,99,-99.99,,,0.02,Acu-Link.com,2013-09-01 08:37:00,
2013-09-01 04:52:00,63.9,63.6,29.79,NE,45,0.0,-999.0,99,-99.99,,,0.02,Acu-Link.com,2013-09-01 08:52:00,
2013-09-01 05:07:00,63.7,63.4,29.78,ESE,112,0.0,-999.0,99,-99.99,,,0.02,Acu-Link.com,2013-09-01 09:07:00,
2013-09-01 05:22:00,63.7,63.4,29.79,NNW,337,0.0,-999.0,99,-99.99,,,0.02,Acu-Link.com,2013-09-01 09:22:00,
2013-09-01 05:37:00,63.3,63.0,29.79,NNE,22,0.0,-999.0,99,-99.99,,,0.02,Acu-Link.com,2013-09-01 09:37:00,
2013-09-01 05:53:00,62.6,62.3,29.79,East,90,0.0,-999.0,99,-99.99,,,0.02,Acu-Link.com,2013-09-01 09:53:00,
2013-09-01 06:08:00,61.7,61.4,29.81,NNE,22,0.0,-999.0,99,-99.99,,,0.02,Acu-Link.com,2013-09-01 10:08:00,
2013-09-01 06:23:00,61.3,61.0,29.82,West,270,1.7,-999.0,99,-99.99,,,0.02,Acu-Link.com,2013-09-01 10:23:00,
2013-09-01 06:38:00,61.3,61.0,29.81,WNW,292,2.7,-999.0,99,-99.99,,,0.02,Acu-Link.com,2013-09-01 10:38:00,
2013-09-01 06:53:00,61.9,61.6,29.83,SW,225,3.2,-999.0,99,-99.99,,,0.02,Acu-Link.com,2013-09-01 10:53:00,
2013-09-01 07:09:00,62.6,62.3,29.82,SW,225,2.7,-999.0,99,-99.99,,,0.02,Acu-Link.com,2013-09-01 11:09:00,
2013-09-01 07:24:00,62.8,62.5,29.82,SW,225,0.0,-999.0,99,-99.99,,,0.02,Acu-Link.com,2013-09-01 11:24:00,
2013-09-01 07:39:00,63.0,62.7,29.82,SE,135,0.0,-999.0,99,-99.99,,,0.02,Acu-Link.com,2013-09-01 11:39:00,
2013-09-01 07:54:00,63.7,62.8,29.83,SW,225,0.0,-999.0,97,-99.99,,,0.02,Acu-Link.com,2013-09-01 11:54:00,
2013-09-01 08:09:00,64.8,63.0,29.82,South,180,0.0,-999.0,94,-99.99,,,0.02,Acu-Link.com,2013-09-01 12:09:00,
2013-09-01 08:25:00,65.3,63.2,29.83,WNW,292,0.0,-999.0,93,-99.99,,,0.02,Acu-Link.com,2013-09-01 12:25:00,
2013-09-01 08:40:00,65.7,63.3,29.84,SW,225,1.7,-999.0,92,-99.99,,,0.02,Acu-Link.com,2013-09-01 12:40:00,
2013-09-01 08:55:00,66.2,63.5,29.82,WNW,292,1.7,-999.0,91,-99.99,,,0.02,Acu-Link.com,2013-09-01 12:55:00,
2013-09-01 09:10:00,67.5,63.2,29.82,SW,225,3.7,-999.0,86,-99.99,,,0.02,Acu-Link.com,2013-09-01 13:10:00,
2013-09-01 09:26:00,67.5,62.5,29.83,West,270,3.2,-999.0,84,-99.99,,,0.02,Acu-Link.com,2013-09-01 13:26:00,
2013-09-01 09:41:00,68.0,63.3,29.82,NNW,337,1.7,-999.0,85,-99.99,,,0.02,Acu-Link.com,2013-09-01 13:41:00,
2013-09-01 09:56:00,68.9,62.8,29.83,South,180,2.2,-999.0,81,-99.99,,,0.02,Acu-Link.com,2013-09-01 13:56:00,
2013-09-01 10:12:00,70.9,62.2,29.83,NNW,337,3.2,-999.0,74,-99.99,,,0.02,Acu-Link.com,2013-09-01 14:12:00,
2013-09-01 10:27:00,71.2,61.3,29.83,East,90,1.7,-999.0,71,-99.99,,,0.02,Acu-Link.com,2013-09-01 14:27:00,
2013-09-01 10:42:00,70.2,61.5,29.83,SE,135,1.1,-999.0,74,-99.99,,,0.02,Acu-Link.com,2013-09-01 14:42:00,
2013-09-01 10:58:00,72.7,62.7,29.83,West,270,1.7,-999.0,71,-99.99,,,0.02,Acu-Link.com,2013-09-01 14:58:00,
2013-09-01 11:13:00,72.0,61.3,29.83,NNE,22,1.7,-999.0,69,-99.99,,,0.02,Acu-Link.com,2013-09-01 15:13:00,
2013-09-01 11:28:00,70.9,60.6,29.84,West,270,1.7,-999.0,70,-99.99,,,0.02,Acu-Link.com,2013-09-01 15:28:00,
2013-09-01 11:44:00,74.1,62.0,29.83,ESE,112,4.7,-999.0,66,-99.99,,,0.02,Acu-Link.com,2013-09-01 15:44:00,
2013-09-01 11:59:00,71.6,60.9,29.83,WSW,247,3.7,-999.0,69,-99.99,,,0.02,Acu-Link.com,2013-09-01 15:59:00,
2013-09-01 12:14:00,72.1,61.4,29.84,WSW,247,0.0,-999.0,69,-99.99,,,0.02,Acu-Link.com,2013-09-01 16:14:00,
2013-09-01 12:29:00,72.3,61.5,29.84,SW,225,0.0,-999.0,69,-99.99,,,0.02,Acu-Link.com,2013-09-01 16:29:00,
2013-09-01 12:44:00,74.7,62.6,29.83,SSE,157,2.2,-999.0,66,-99.99,,,0.02,Acu-Link.com,2013-09-01 16:44:00,
2013-09-01 13:00:00,73.6,62.0,29.84,SW,225,0.0,-999.0,67,-99.99,,,0.02,Acu-Link.com,2013-09-01 17:00:00,
2013-09-01 13:15:00,73.0,61.4,29.85,ESE,112,0.0,-999.0,67,-99.99,,,0.02,Acu-Link.com,2013-09-01 17:15:00,
2013-09-01 13:30:00,74.3,62.2,29.84,ESE,112,1.7,-999.0,66,-99.99,,,0.02,Acu-Link.com,2013-09-01 17:30:00,
2013-09-01 13:45:00,77.5,62.5,29.84,SSW,202,2.7,-999.0,60,-99.99,,,0.02,Acu-Link.com,2013-09-01 17:45:00,
2013-09-01 14:01:00,77.2,63.6,29.84,SSW,202,1.7,-999.0,63,-99.99,,,0.02,Acu-Link.com,2013-09-01 18:01:00,
2013-09-01 14:16:00,79.7,63.6,29.85,WSW,247,2.7,-999.0,58,-99.99,,,0.02,Acu-Link.com,2013-09-01 18:16:00,
2013-09-01 14:31:00,77.4,61.9,29.84,SSW,202,3.7,-999.0,59,-99.99,,,0.02,Acu-Link.com,2013-09-01 18:31:00,
2013-09-01 14:46:00,75.4,60.1,29.82,West,270,2.2,-999.0,59,-99.99,,,0.02,Acu-Link.com,2013-09-01 18:46:00,
2013-09-01 15:02:00,79.0,60.9,29.83,SE,135,2.7,-999.0,54,-99.99,,,0.02,Acu-Link.com,2013-09-01 19:02:00,
2013-09-01 15:17:00,77.7,60.7,29.82,West,270,5.3,-999.0,56,-99.99,,,0.02,Acu-Link.com,2013-09-01 19:17:00,
2013-09-01 15:32:00,77.5,61.0,29.82,SW,225,7.8,-999.0,57,-99.99,,,0.02,Acu-Link.com,2013-09-01 19:32:00,
2013-09-01 15:47:00,77.9,59.4,29.81,SW,225,4.7,-999.0,53,-99.99,,,0.02,Acu-Link.com,2013-09-01 19:47:00,
2013-09-01 16:02:00,81.7,58.9,29.81,WSW,247,4.7,-999.0,46,-99.99,,,0.02,Acu-Link.com,2013-09-01 20:02:00,
2013-09-01 16:18:00,84.4,59.4,29.81,ESE,112,0.0,-999.0,43,-99.99,,,0.02,Acu-Link.com,2013-09-01 20:18:00,
2013-09-01 16:33:00,81.3,59.1,29.82,SW,225,3.2,-999.0,47,-99.99,,,0.02,Acu-Link.com,2013-09-01 20:33:00,
2013-09-01 16:48:00,82.2,59.3,29.82,North,0,1.7,-999.0,46,-99.99,,,0.02,Acu-Link.com,2013-09-01 20:48:00,
2013-09-01 17:03:00,79.0,60.4,29.82,SE,135,0.0,-999.0,53,-99.99,,,0.02,Acu-Link.com,2013-09-01 21:03:00,
2013-09-01 17:18:00,78.3,61.3,29.83,ESE,112,0.0,-999.0,56,-99.99,,,0.02,Acu-Link.com,2013-09-01 21:18:00,
2013-09-01 17:34:00,79.0,60.4,29.82,SSW,202,0.0,-999.0,53,-99.99,,,0.02,Acu-Link.com,2013-09-01 21:34:00,
2013-09-01 17:49:00,78.8,61.2,29.82,ESE,112,0.0,-999.0,55,-99.99,,,0.02,Acu-Link.com,2013-09-01 21:49:00,
2013-09-01 18:04:00,77.2,61.7,29.81,ESE,112,1.1,-999.0,59,-99.99,,,0.02,Acu-Link.com,2013-09-01 22:04:00,
2013-09-01 18:19:00,77.9,61.9,29.81,ESE,112,1.7,-999.0,58,-99.99,,,0.02,Acu-Link.com,2013-09-01 22:19:00,
2013-09-01 18:34:00,77.5,62.5,29.80,NNE,22,0.0,-999.0,60,-99.99,,,0.02,Acu-Link.com,2013-09-01 22:34:00,
2013-09-01 18:50:00,75.6,63.0,29.81,NE,45,0.0,-999.0,65,-99.99,,,0.02,Acu-Link.com,2013-09-01 22:50:00,
2013-09-01 19:05:00,72.1,62.2,29.81,NE,45,0.0,-999.0,71,-99.99,,,0.02,Acu-Link.com,2013-09-01 23:05:00,
2013-09-01 19:20:00,69.8,61.1,29.83,NE,45,0.0,-999.0,74,-99.99,,,0.02,Acu-Link.com,2013-09-01 23:20:00,
2013-09-01 19:35:00,68.2,60.3,29.83,NNE,22,1.7,-999.0,76,-99.99,,,0.02,Acu-Link.com,2013-09-01 23:35:00,
2013-09-01 19:50:00,66.2,59.5,29.83,NNE,22,0.0,-999.0,79,-99.99,,,0.02,Acu-Link.com,2013-09-01 23:50:00,
2013-09-01 20:06:00,65.1,59.1,29.83,NNW,337,2.2,-999.0,81,-99.99,,,0.02,Acu-Link.com,2013-09-02 00:06:00,
2013-09-01 20:22:00,64.9,58.9,29.84,East,90,2.7,-999.0,81,-99.99,,,0.02,Acu-Link.com,2013-09-02 00:22:00,
2013-09-01 20:37:00,64.9,58.6,29.84,West,270,2.7,-999.0,80,-99.99,,,0.02,Acu-Link.com,2013-09-02 00:37:00,
2013-09-01 20:52:00,64.6,58.6,29.86,East,90,3.2,-999.0,81,-99.99,,,0.02,Acu-Link.com,2013-09-02 00:52:00,
2013-09-01 21:07:00,65.3,59.3,29.85,NNE,22,1.1,-999.0,81,-99.99,,,0.02,Acu-Link.com,2013-09-02 01:07:00,
2013-09-01 21:22:00,65.1,59.1,29.86,NNW,337,1.7,-999.0,81,-99.99,,,0.02,Acu-Link.com,2013-09-02 01:22:00,
2013-09-01 21:38:00,64.8,58.8,29.86,ENE,67,2.2,-999.0,81,-99.99,,,0.02,Acu-Link.com,2013-09-02 01:38:00,
2013-09-01 21:53:00,64.4,58.8,29.86,NNE,22,2.7,-999.0,82,-99.99,,,0.02,Acu-Link.com,2013-09-02 01:53:00,
2013-09-01 22:08:00,64.8,59.2,29.86,WNW,292,2.7,-999.0,82,-99.99,,,0.02,Acu-Link.com,2013-09-02 02:08:00,
2013-09-01 22:23:00,64.8,59.2,29.87,SE,135,0.0,-999.0,82,-99.99,,,0.02,Acu-Link.com,2013-09-02 02:23:00,
2013-09-01 22:38:00,65.1,59.5,29.87,North,0,2.2,-999.0,82,-99.99,,,0.02,Acu-Link.com,2013-09-02 02:38:00,
2013-09-01 22:54:00,65.8,59.8,29.86,East,90,2.7,-999.0,81,-99.99,,,0.02,Acu-Link.com,2013-09-02 02:54:00,
2013-09-01 23:09:00,66.0,59.6,29.87,East,90,5.3,-999.0,80,-99.99,,,0.02,Acu-Link.com,2013-09-02 03:09:00,
2013-09-01 23:24:00,66.2,59.8,29.87,ESE,112,7.8,-999.0,80,-99.99,,,0.02,Acu-Link.com,2013-09-02 03:24:00,
2013-09-01 23:39:00,66.2,59.8,29.86,ESE,112,4.2,-999.0,80,-99.99,,,0.02,Acu-Link.com,2013-09-02 03:39:00,
2013-09-01 23:54:00,66.4,60.0,29.86,ESE,112,3.2,-999.0,80,-99.99,,,0.02,Acu-Link.com,2013-09-02 03:54:00,